TimeEST,TemperatureF,Dew PointF,Humidity,Sea Level PressureIn,VisibilityMPH,Wind Direction,Wind SpeedMPH,Gust SpeedMPH,PrecipitationIn,Events,Conditions,WindDirDegrees,DateUTC
12:15 AM,21.2,6.8,54,30.52,10.0,Calm,Calm,-,N/A,,Clear,0,2013-11-25 05:15:00
12:35 AM,19.4,6.8,58,30.51,10.0,West,5.8,-,N/A,,Clear,270,2013-11-25 05:35:00
12:55 AM,19.4,6.8,58,30.51,10.0,WNW,8.1,-,N/A,,Clear,290,2013-11-25 05:55:00
1:15 AM,19.4,6.8,58,30.51,10.0,West,5.8,-,N/A,,Clear,280,2013-11-25 06:15:00
1:35 AM,19.4,6.8,58,30.51,10.0,WSW,4.6,-,N/A,,Clear,250,2013-11-25 06:35:00
1:55 AM,19.4,6.8,58,30.51,10.0,WNW,4.6,-,N/A,,Clear,290,2013-11-25 06:55:00
2:15 AM,19.4,6.8,58,30.51,10.0,WNW,3.5,-,N/A,,Clear,290,2013-11-25 07:15:00
2:35 AM,19.4,6.8,58,30.51,10.0,West,3.5,-,N/A,,Clear,280,2013-11-25 07:35:00
2:55 AM,19.4,6.8,58,30.51,10.0,WNW,5.8,-,N/A,,Clear,290,2013-11-25 07:55:00
3:15 AM,17.6,6.8,63,30.51,10.0,West,6.9,-,N/A,,Clear,280,2013-11-25 08:15:00
3:35 AM,17.6,6.8,63,30.52,10.0,WNW,10.4,-,N/A,,Clear,290,2013-11-25 08:35:00
3:55 AM,19.4,6.8,58,30.53,10.0,WNW,10.4,-,N/A,,Clear,300,2013-11-25 08:55:00
4:15 AM,19.4,6.8,58,30.53,10.0,WNW,9.2,-,N/A,,Clear,300,2013-11-25 09:15:00
4:35 AM,19.4,6.8,58,30.53,10.0,WNW,6.9,-,N/A,,Clear,290,2013-11-25 09:35:00
4:55 AM,19.4,6.8,58,30.53,10.0,WNW,6.9,-,N/A,,Clear,290,2013-11-25 09:55:00
5:15 AM,19.4,6.8,58,30.53,10.0,WNW,6.9,-,N/A,,Clear,290,2013-11-25 10:15:00
5:35 AM,19.4,5.0,54,30.53,10.0,West,5.8,-,N/A,,Clear,280,2013-11-25 10:35:00
5:55 AM,19.4,5.0,54,30.54,10.0,WNW,6.9,-,N/A,,Clear,290,2013-11-25 10:55:00
6:15 AM,17.6,6.8,63,30.54,10.0,NW,3.5,-,N/A,,Clear,310,2013-11-25 11:15:00
6:35 AM,17.6,5.0,58,30.54,10.0,West,4.6,-,N/A,,Clear,270,2013-11-25 11:35:00
6:55 AM,17.6,5.0,58,30.54,10.0,Calm,Calm,-,N/A,,Clear,0,2013-11-25 11:55:00
7:15 AM,17.6,6.8,63,30.55,10.0,SSW,4.6,-,N/A,,Clear,200,2013-11-25 12:15:00
7:35 AM,17.6,8.6,68,30.56,10.0,West,3.5,-,N/A,,Clear,280,2013-11-25 12:35:00
7:55 AM,19.4,8.6,63,30.56,10.0,WNW,3.5,-,N/A,,Clear,290,2013-11-25 12:55:00
8:15 AM,21.2,8.6,58,30.57,10.0,Calm,Calm,-,N/A,,Clear,0,2013-11-25 13:15:00
8:35 AM,21.2,8.6,58,30.57,10.0,West,3.5,-,N/A,,Clear,270,2013-11-25 13:35:00
8:55 AM,23.0,6.8,50,30.58,10.0,SW,4.6,-,N/A,,Clear,230,2013-11-25 13:55:00
9:15 AM,23.0,6.8,50,30.58,10.0,West,5.8,-,N/A,,Clear,260,2013-11-25 14:15:00
9:35 AM,24.8,6.8,46,30.58,10.0,West,5.8,-,N/A,,Clear,260,2013-11-25 14:35:00
9:55 AM,24.8,6.8,46,30.57,10.0,West,6.9,-,N/A,,Clear,260,2013-11-25 14:55:00
10:15 AM,26.6,6.8,43,30.55,10.0,West,5.8,-,N/A,,Clear,280,2013-11-25 15:15:00
10:35 AM,26.6,6.8,43,30.56,10.0,WSW,6.9,-,N/A,,Clear,250,2013-11-25 15:35:00
10:55 AM,28.4,6.8,40,30.55,10.0,West,8.1,-,N/A,,Clear,270,2013-11-25 15:55:00
11:15 AM,28.4,6.8,40,30.54,10.0,NNW,3.5,-,N/A,,Clear,330,2013-11-25 16:15:00
11:35 AM,30.2,6.8,37,30.52,10.0,West,6.9,-,N/A,,Clear,270,2013-11-25 16:35:00
11:55 AM,30.2,6.8,37,30.51,10.0,WSW,4.6,-,N/A,,Clear,250,2013-11-25 16:55:00
12:15 PM,32.0,5.0,32,30.49,10.0,West,3.5,-,N/A,,Clear,260,2013-11-25 17:15:00
12:35 PM,33.8,5.0,30,30.48,10.0,South,5.8,-,N/A,,Clear,190,2013-11-25 17:35:00
12:55 PM,33.8,6.8,32,30.47,10.0,SW,6.9,-,N/A,,Clear,230,2013-11-25 17:55:00
1:15 PM,35.6,5.0,28,30.46,10.0,SSW,4.6,-,N/A,,Clear,200,2013-11-25 18:15:00
1:35 PM,33.8,3.2,28,30.44,10.0,SSE,6.9,-,N/A,,Clear,160,2013-11-25 18:35:00
1:55 PM,35.6,5.0,28,30.44,10.0,South,5.8,-,N/A,,Clear,180,2013-11-25 18:55:00
2:15 PM,35.6,3.2,26,30.43,10.0,SSE,8.1,-,N/A,,Clear,160,2013-11-25 19:15:00
2:35 PM,35.6,3.2,26,30.43,10.0,SSE,8.1,-,N/A,,Clear,150,2013-11-25 19:35:00
2:55 PM,35.6,5.0,28,30.43,10.0,South,9.2,-,N/A,,Clear,170,2013-11-25 19:55:00
3:15 PM,35.6,5.0,28,30.43,10.0,SSE,8.1,-,N/A,,Clear,160,2013-11-25 20:15:00
3:35 PM,33.8,6.8,32,30.43,10.0,SSE,9.2,-,N/A,,Clear,160,2013-11-25 20:35:00
3:55 PM,33.8,6.8,32,30.42,10.0,SSE,8.1,-,N/A,,Clear,160,2013-11-25 20:55:00
4:15 PM,33.8,6.8,32,30.41,10.0,SSE,8.1,-,N/A,,Clear,160,2013-11-25 21:15:00
4:35 PM,32.0,6.8,35,30.40,10.0,SSE,10.4,-,N/A,,Clear,150,2013-11-25 21:35:00
4:55 PM,32.0,6.8,35,30.41,10.0,South,6.9,-,N/A,,Clear,170,2013-11-25 21:55:00
5:15 PM,32.0,6.8,35,30.40,10.0,South,6.9,-,N/A,,Clear,180,2013-11-25 22:15:00
5:35 PM,32.0,6.8,35,30.41,10.0,South,6.9,-,N/A,,Clear,170,2013-11-25 22:35:00
5:55 PM,32.0,6.8,35,30.40,10.0,South,8.1,-,N/A,,Clear,170,2013-11-25 22:55:00
6:15 PM,32.0,6.8,35,30.41,10.0,South,5.8,-,N/A,,Clear,180,2013-11-25 23:15:00
6:35 PM,32.0,8.6,38,30.40,10.0,South,4.6,-,N/A,,Clear,180,2013-11-25 23:35:00
6:55 PM,32.0,6.8,35,30.40,10.0,SSW,6.9,-,N/A,,Clear,200,2013-11-25 23:55:00
7:15 PM,32.0,6.8,35,30.40,10.0,South,6.9,-,N/A,,Clear,190,2013-11-26 00:15:00
7:35 PM,32.0,6.8,35,30.40,10.0,SSW,8.1,-,N/A,,Clear,200,2013-11-26 00:35:00
7:55 PM,32.0,6.8,35,30.39,10.0,South,4.6,-,N/A,,Clear,190,2013-11-26 00:55:00
8:15 PM,32.0,6.8,35,30.40,10.0,SSW,6.9,-,N/A,,Clear,210,2013-11-26 01:15:00
8:35 PM,32.0,6.8,35,30.38,10.0,South,6.9,-,N/A,,Clear,190,2013-11-26 01:35:00
8:55 PM,32.0,6.8,35,30.37,10.0,South,5.8,-,N/A,,Clear,180,2013-11-26 01:55:00
9:15 PM,32.0,6.8,35,30.37,10.0,SSW,5.8,-,N/A,,Clear,200,2013-11-26 02:15:00
9:35 PM,32.0,6.8,35,30.37,10.0,South,5.8,-,N/A,,Clear,190,2013-11-26 02:35:00
9:55 PM,32.0,6.8,35,30.36,10.0,SSW,5.8,-,N/A,,Scattered Clouds,210,2013-11-26 02:55:00
10:15 PM,32.0,6.8,35,30.37,10.0,SSW,6.9,-,N/A,,Scattered Clouds,210,2013-11-26 03:15:00
10:35 PM,32.0,6.8,35,30.37,10.0,SW,6.9,-,N/A,,Mostly Cloudy,220,2013-11-26 03:35:00
10:55 PM,33.8,8.6,35,30.37,10.0,SSW,5.8,-,N/A,,Overcast,210,2013-11-26 03:55:00
11:15 PM,33.8,8.6,35,30.36,10.0,SSW,5.8,-,N/A,,Scattered Clouds,210,2013-11-26 04:15:00
11:35 PM,33.8,8.6,35,30.36,10.0,SSW,6.9,-,N/A,,Clear,210,2013-11-26 04:35:00
11:55 PM,33.8,8.6,35,30.35,10.0,SSW,4.6,-,N/A,,Scattered Clouds,200,2013-11-26 04:55:00